NOAA 16 DEB, 41406

Orbit data source: Space-Track

NOAA 16 DEB, 41406 is space debris in SSO originally from a launch on Thu, 21 Sep 2000 UTC launched from the Air Force Western Test Range (AFWTR). Debris objects in space refer to the collection of defunct objects orbiting the Earth. Examples of debris include non-operational satellites, rocket bodies, and fragments generated from explosions, collisions, or faulty payload assembly.

Loading next visibility...
Identifier
41406, 2000-055KK
Orbit
SSO
Country
Flag of USUS
Related business
Manufacturer
Unknown
Mission
Spacecraft
Bus & Motor
Unknown
Mass
Unknown
Launch date (UTC)
2000-09-21 (26 years ago)
Launch vehicle
Unknown
Launch site
Air Force Western Test Range (AFWTR)
Object type
Payload
Rocket body
Debris
Shape & HBR
Unknown shape, 0.1 m
Radar Cross Section
Medium (>0.1 m² and <1 m²)

Expand to show TLE details & history
Last TLE update: 9 hours ago

TLE from 9 hours ago
0 NOAA 16 DEB
1 41406U 00055KK  26254.57717974  .00004474  00000-0  97689-3 0  9992
2 41406  98.9483 116.1956 0027947 138.7307 221.6009 14.58141795551405
Epoch: 2026-09-11T13:51Z
TLE epoch observation values (Epoch: 2026-09-11T13:51:08.329Z)
Latitude
-0.00002°
Longitude
-82.18764°
Altitude
716.957 km
Speed
7.489 km/s
True Right ascension
07h 44m 46s
True Declination
0° 00' 00"
Sunlit
Object was in daylight at epoch
Visualization orbit readout
Latitude
Unknown
Longitude
Unknown
Altitude
Unknown
Speed
Unknown
Apparent Right ascension
Unknown
Apparent Declination
Unknown
Sunlit
N/A
Visualization observer readout
Local Sidereal Time
14:48:26
Azimuth
Unknown
Elevation
Unknown
Doppler factor
Unknown
Orbital elements
Apogee altitude
716.071 km
Perigee altitude
676.529 km
Semi-major axis
7,074.437 km
Eccentricity
0.00279
Inclination
98.9483°
RAAN
116.1956°
Arg. of periapsis
138.7307°
True anomaly
221.38883°
Mean anomaly
221.6009°
Eccentric anomaly
221.49481°
Mean motion
3.64758 °/min
Orbital period
98.7 mins
BSTAR
0.00097689
Loading maneuver chart data...
Computing Atmospheric mass density...
Loading historical data...
Loading historical data...
Loading historical data...
Loading historical data...
Loading historical data...
Loading historical data...
Loading historical data...

Documentation

Showing up to 5 results
|